W2CS Weather Reports


time (UTC)temp
C
wind
direction
speed
KPH
gust
KPH
rain 1hr
cm
rain 24hr
cm
rain mn
cm
humidity
%
barometer
mb
20260507200539 16 0 0.0 4.8 0.00 0.00 0.00 63 1005.2
20260507200052 17 40 0.0 4.8 0.00 0.00 0.00 63 1005.0
20260507195539 17 288 1.6 3.2 0.00 0.00 0.00 63 1005.1
20260507195039 17 0 0.0 3.2 0.00 0.00 0.00 66 1005.1
20260507194557 17 278 0.0 1.6 0.00 0.00 0.00 67 1005.3
20260507194039 17 0 0.0 1.6 0.00 0.00 0.00 64 1005.4
20260507193539 18 0 0.0 1.6 0.00 0.00 0.00 67 1005.6
20260507193057 18 0 0.0 1.6 0.00 0.00 0.00 66 1005.6
20260507192539 18 278 0.0 3.2 0.00 0.00 0.00 66 1005.7
20260507192041 18 278 0.0 3.2 0.00 0.00 0.00 66 1005.8
20260507191550 18 278 0.0 3.2 0.00 0.00 0.00 65 1005.8
20260507191040 18 0 0.0 3.2 0.00 0.00 0.00 68 1005.9
20260507190539 18 221 0.0 3.2 0.00 0.00 0.00 65 1006.0
20260507190055 19 0 0.0 3.2 0.00 0.00 0.00 68 1006.1
20260507185538 19 139 0.0 3.2 0.00 0.00 0.00 70 1006.1
20260507185039 18 0 0.0 3.2 0.00 0.00 0.00 73 1006.1
20260507184550 18 0 0.0 3.2 0.00 0.00 0.00 71 1006.2
20260507184040 18 222 0.0 3.2 0.00 0.00 0.00 74 1006.3
20260507183539 18 0 0.0 3.2 0.00 0.00 0.00 71 1006.4
20260507183050 18 31 0.0 3.2 0.00 0.00 0.00 71 1006.5
20260507182539 18 0 1.6 4.8 0.00 0.00 0.00 70 1006.4
20260507182040 17 0 0.0 4.8 0.00 0.00 0.00 76 1006.8
20260507181553 17 0 1.6 4.8 0.00 0.00 0.00 73 1006.7
20260507181039 17 31 1.6 4.8 0.00 0.00 0.00 76 1006.8
20260507180543 18 31 1.6 4.8 0.00 0.00 0.00 71 1006.9
20260507180050 18 0 1.6 6.4 0.00 0.00 0.00 80 1006.8
20260507175539 17 37 1.6 6.4 0.00 0.00 0.00 78 1006.8
20260507175039 17 349 1.6 4.8 0.00 0.00 0.00 78 1006.9
20260507174622 16 10 1.6 11.3 0.00 0.00 0.00 79 1006.8
20260507174038 16 182 1.6 11.3 0.00 0.00 0.00 81 1006.8
20260507173539 16 193 1.6 12.9 0.00 0.00 0.00 67 1006.8
20260507173055 16 247 1.6 12.9 0.00 0.00 0.00 61 1006.9
20260507172540 16 158 1.6 4.8 0.00 0.00 0.00 67 1007.1
20260507172038 16 329 1.6 4.8 0.00 0.00 0.00 68 1007.3
20260507171608 16 344 0.0 4.8 0.00 0.00 0.00 68 1007.3
20260507171039 16 0 0.0 4.8 0.00 0.00 0.00 71 1007.4
20260507170539 16 0 1.6 6.4 0.00 0.00 0.00 67 1007.4
20260507170051 16 335 1.6 9.7 0.00 0.00 0.00 68 1007.4
20260507165541 16 355 1.6 9.7 0.00 0.00 0.00 67 1007.4
20260507165039 17 222 1.6 4.8 0.00 0.00 0.00 67 1007.6
20260507164552 16 330 1.6 3.2 0.00 0.00 0.00 70 1007.6
20260507164039 16 0 0.0 3.2 0.00 0.00 0.00 77 1007.6
20260507163538 16 345 0.0 4.8 0.00 0.00 0.00 70 1007.7
20260507163048 16 321 1.6 4.8 0.00 0.00 0.00 74 1007.6
20260507162539 16 0 0.0 3.2 0.00 0.00 0.00 74 1007.6
20260507162039 16 144 0.0 4.8 0.00 0.00 0.00 73 1007.6
20260507161553 16 145 0.0 8.0 0.00 0.00 0.00 73 1007.8
20260507161037 16 71 1.6 8.0 0.00 0.00 0.00 73 1007.8
20260507160540 16 143 1.6 4.8 0.00 0.00 0.00 72 1007.8
20260507160114 16 282 1.6 8.0 0.00 0.00 0.00 76 1007.8
20260507155538 16 0 1.6 9.7 0.00 0.00 0.00 74 1007.9
20260507155039 16 85 1.6 9.7 0.00 0.00 0.00 76 1007.9
20260507154551 16 101 1.6 6.4 0.00 0.00 0.00 79 1008.0
20260507154038 16 0 0.0 6.4 0.00 0.00 0.00 80 1008.2
20260507153538 16 0 0.0 4.8 0.00 0.00 0.00 78 1008.1
20260507153048 15 51 1.6 6.4 0.00 0.00 0.00 82 1008.1
20260507152541 15 137 0.0 6.4 0.00 0.00 0.00 81 1008.2
20260507152040 15 137 1.6 6.4 0.00 0.00 0.00 78 1008.2
20260507151555 15 26 1.6 4.8 0.00 0.00 0.00 81 1008.3
20260507151039 15 293 0.0 4.8 0.00 0.00 0.00 84 1008.3
20260507150539 14 0 0.0 6.4 0.00 0.00 0.00 83 1008.2
20260507150051 14 9 1.6 6.4 0.00 0.00 0.00 86 1008.3
20260507145544 13 182 1.6 4.8 0.00 0.00 0.00 85 1008.3
20260507145039 13 328 0.0 4.8 0.00 0.00 0.00 86 1008.3
20260507144553 13 328 0.0 4.8 0.00 0.00 0.00 87 1008.3
20260507144039 13 181 0.0 4.8 0.00 0.00 0.00 90 1008.2
20260507143538 12 230 1.6 4.8 0.00 0.00 0.00 90 1008.1
20260507143054 12 85 0.0 4.8 0.00 0.00 0.00 92 1008.2
20260507142538 12 85 0.0 4.8 0.00 0.00 0.00 93 1008.2
20260507142038 12 0 0.0 4.8 0.00 0.00 0.00 94 1008.4
20260507141602 11 0 0.0 4.8 0.00 0.00 0.00 93 1008.3
20260507141039 11 0 0.0 1.6 0.00 0.00 0.00 94 1008.3
20260507140539 11 0 0.0 1.6 0.00 0.00 0.00 94 1008.5
20260507140109 11 0 0.0 1.6 0.00 0.00 0.00 94 1008.8
20260507135539 11 0 0.0 4.8 0.00 0.00 0.00 94 1008.7
20260507135039 11 0 0.0 4.8 0.00 0.00 0.00 94 1008.6
20260507134550 11 247 0.0 6.4 0.00 0.00 0.00 94 1008.4
20260507134039 11 0 1.6 6.4 0.00 0.00 0.00 94 1008.5
20260507133539 11 0 0.0 3.2 0.00 0.00 0.00 95 1008.6
20260507133059 10 0 0.0 3.2 0.00 0.00 0.00 95 1008.6
20260507132539 10 0 0.0 1.6 0.00 0.00 0.00 95 1008.5
20260507132038 10 0 0.0 1.6 0.00 0.00 0.00 95 1008.6
20260507131613 10 0 0.0 3.2 0.00 0.00 0.00 95 1008.6
20260507131039 10 0 0.0 3.2 0.00 0.00 0.00 95 1008.6
20260507130541 10 0 0.0 1.6 0.00 0.00 0.00 95 1008.6
20260507130049 10 201 0.0 1.6 0.00 0.00 0.00 95 1008.6
20260507125538 10 201 0.0 0.0 0.00 0.00 0.00 95 1008.3
20260507125040 10 0 0.0 0.0 0.00 0.00 0.00 95 1008.4
20260507124554 10 0 0.0 1.6 0.00 0.00 0.00 95 1008.5
20260507124039 9 0 0.0 1.6 0.00 0.00 0.00 95 1008.4
20260507123539 9 0 0.0 1.6 0.00 0.00 0.00 95 1008.3
20260507123047 9 0 0.0 1.6 0.00 0.00 0.00 95 1008.5
20260507122538 9 203 0.0 1.6 0.00 0.00 0.00 95 1008.7
20260507122042 9 0 0.0 1.6 0.00 0.00 0.00 95 1008.7
20260507121556 9 0 0.0 1.6 0.00 0.00 0.00 95 1008.7
20260507121039 8 0 0.0 1.6 0.00 0.00 0.00 94 1008.8
20260507120538 8 0 0.0 1.6 0.00 0.00 0.00 94 1008.8
20260507120047 8 0 0.0 1.6 0.00 0.00 0.00 94 1008.6
20260507115539 8 0 0.0 0.0 0.00 0.00 0.00 95 1008.6
20260507115038 8 0 0.0 1.6 0.00 0.00 0.00 95 1008.3
20260507114548 8 0 0.0 1.6 0.00 0.00 0.00 95 1008.5
20260507114046 8 0 0.0 3.2 0.00 0.00 0.00 95 1008.5
20260507113540 8 0 0.0 3.2 0.00 0.00 0.00 95 1008.6
20260507113109 8 0 0.0 3.2 0.00 0.00 0.00 95 1008.5
20260507112543 8 0 0.0 3.2 0.00 0.00 0.00 95 1008.2
20260507112038 8 0 0.0 3.2 0.00 0.00 0.00 95 1008.3
20260507111545 8 0 0.0 3.2 0.00 0.00 0.00 94 1008.2
20260507111038 8 0 0.0 3.2 0.00 0.00 0.00 94 1008.5
20260507110539 8 0 0.0 3.2 0.00 0.00 0.00 94 1009.0
20260507110048 9 0 0.0 4.8 0.00 0.00 0.00 94 1008.8
20260507105538 9 0 0.0 4.8 0.00 0.00 0.00 94 1008.6
20260507105038 9 0 0.0 1.6 0.00 0.00 0.00 94 1007.7
20260507104600 9 0 0.0 3.2 0.00 0.00 0.00 94 1007.4
20260507104039 9 0 0.0 3.2 0.00 0.00 0.00 94 1007.3
20260507103539 9 0 0.0 6.4 0.00 0.00 0.00 94 1007.3
20260507103050 9 0 0.0 6.4 0.00 0.00 0.00 94 1007.3
20260507102538 9 0 0.0 1.6 0.00 0.00 0.00 94 1007.4
20260507102038 9 0 0.0 3.2 0.00 0.00 0.00 94 1007.5
20260507101553 9 0 0.0 3.2 0.00 0.00 0.00 94 1007.6
20260507101037 9 0 0.0 3.2 0.00 0.00 0.00 94 1007.2
20260507100539 9 0 0.0 3.2 0.00 0.00 0.00 94 1007.2
20260507100057 9 0 0.0 1.6 0.00 0.00 0.00 94 1007.2
20260507095542 9 0 0.0 1.6 0.00 0.00 0.00 94 1007.3
20260507095042 9 0 0.0 4.8 0.00 0.00 0.00 94 1007.4
20260507094604 10 0 0.0 4.8 0.00 0.00 0.00 94 1007.1
20260507094041 10 0 0.0 0.0 0.00 0.00 0.00 94 1007.1
20260507093539 10 0 0.0 1.6 0.00 0.00 0.00 94 1007.2
20260507093050 10 0 0.0 1.6 0.00 0.00 0.00 94 1007.2
20260507092539 10 0 0.0 1.6 0.00 0.00 0.00 94 1007.2
20260507092038 10 0 0.0 1.6 0.00 0.00 0.00 94 1007.0
20260507091552 10 0 0.0 0.0 0.00 0.00 0.00 94 1007.0
20260507091041 10 0 0.0 1.6 0.00 0.00 0.00 94 1007.1
20260507090540 10 0 0.0 1.6 0.00 0.00 0.00 94 1007.4
20260507090049 10 0 0.0 1.6 0.00 0.00 0.00 95 1007.4
20260507085540 11 0 0.0 4.8 0.00 0.00 0.00 95 1007.2
20260507085039 11 0 0.0 6.4 0.00 0.00 0.00 95 1006.9
20260507084557 11 340 0.0 6.4 0.00 0.00 0.00 95 1006.7
20260507084038 11 0 0.0 1.6 0.00 0.00 0.00 95 1007.3
20260507083540 11 0 0.0 0.0 0.00 0.00 0.00 95 1006.9
20260507083047 11 0 0.0 0.0 0.00 0.00 0.00 95 1006.6
20260507082538 11 0 0.0 0.0 0.00 0.00 0.00 95 1006.7
20260507082040 11 0 0.0 0.0 0.00 0.00 0.00 95 1006.8
20260507081550 11 0 0.0 3.2 0.00 0.00 0.00 95 1006.9
20260507081038 11 0 0.0 3.2 0.00 0.00 0.00 95 1006.6
20260507080539 11 178 0.0 3.2 0.00 0.00 0.00 95 1007.1
20260507080055 11 0 0.0 0.0 0.00 0.00 0.00 95 1007.4
20260507075540 11 0 0.0 0.0 0.00 0.00 0.00 95 1007.2
20260507075049 11 0 0.0 0.0 0.00 0.00 0.00 95 1006.6
20260507074552 11 0 0.0 0.0 0.00 0.00 0.00 95 1006.3
20260507074039 11 0 0.0 0.0 0.00 0.00 0.00 95 1006.2
20260507073539 11 0 0.0 0.0 0.00 0.00 0.00 95 1006.1
20260507073053 11 0 0.0 0.0 0.00 0.00 0.00 95 1006.1
20260507072539 11 0 0.0 0.0 0.00 0.00 0.00 95 1006.1
20260507072038 11 0 0.0 0.0 0.00 0.00 0.00 95 1006.0
20260507071549 11 0 0.0 0.0 0.00 0.00 0.00 95 1006.1
20260507071039 11 0 0.0 0.0 0.00 0.00 0.00 95 1006.2
20260507070539 11 0 0.0 0.0 0.00 0.00 0.00 95 1006.2
20260507070105 11 0 0.0 0.0 0.00 0.00 0.00 95 1006.2
20260507065538 11 0 0.0 0.0 0.00 0.00 0.00 95 1006.2
20260507065038 11 0 0.0 0.0 0.00 0.00 0.00 95 1006.5
20260507064553 11 0 0.0 0.0 0.00 0.00 0.00 95 1006.6
20260507064038 11 0 0.0 0.0 0.00 0.00 0.00 95 1006.4
20260507063538 11 0 0.0 0.0 0.00 0.00 0.00 95 1006.4
20260507063053 11 0 0.0 0.0 0.00 0.00 0.00 95 1006.4
20260507062539 11 0 0.0 1.6 0.00 0.00 0.00 95 1006.4
20260507062040 11 0 0.0 1.6 0.00 0.00 0.00 94 1006.3
20260507061549 11 346 0.0 0.0 0.00 0.00 0.00 94 1006.2
20260507061038 11 0 0.0 0.0 0.00 0.00 0.00 95 1006.5
20260507060539 11 0 0.0 0.0 0.00 0.00 0.00 95 1006.7
20260507060050 11 0 0.0 0.0 0.00 0.00 0.00 95 1006.7
20260507055540 11 0 0.0 0.0 0.00 0.00 0.00 95 1006.9
20260507055038 11 0 0.0 0.0 0.00 0.00 0.00 95 1006.9
20260507054547 11 0 0.0 0.0 0.00 0.00 0.00 95 1006.9
20260507054038 11 0 0.0 1.6 0.00 0.00 0.00 95 1007.0
20260507053538 11 0 0.0 1.6 0.00 0.00 0.00 95 1006.9
20260507053047 11 0 0.0 1.6 0.00 0.00 0.00 95 1007.1
20260507052540 11 0 0.0 1.6 0.00 0.00 0.00 95 1007.3
20260507052039 11 346 0.0 1.6 0.00 0.00 0.00 95 1007.4
20260507051550 11 0 0.0 3.2 0.00 0.00 0.00 95 1007.4
20260507051039 11 0 0.0 3.2 0.00 0.00 0.00 95 1007.3
20260507050540 11 346 0.0 3.2 0.00 0.00 0.00 95 1007.5
20260507050107 11 0 0.0 1.6 0.00 0.00 0.00 95 1007.5
20260507045539 11 0 0.0 3.2 0.00 0.00 0.00 95 1007.4
20260507045039 11 0 0.0 3.2 0.00 0.00 0.00 94 1007.3
20260507044555 11 0 0.0 3.2 0.00 0.00 0.00 94 1007.4
20260507044041 11 346 0.0 3.2 0.00 0.00 0.00 94 1007.4
20260507043538 11 346 0.0 3.2 0.00 0.00 0.00 94 1007.4
20260507043051 11 346 0.0 3.2 0.00 0.00 0.00 94 1007.6
20260507042543 11 0 0.0 1.6 0.00 0.00 0.00 94 1007.4
20260507042041 11 0 0.0 3.2 0.00 0.00 0.00 94 1007.4
20260507041550 11 0 0.0 3.2 0.00 0.00 0.00 94 1007.5
20260507041038 11 346 0.0 3.2 0.00 0.00 0.00 94 1007.5
20260507040539 11 0 0.0 3.2 0.00 0.00 0.00 94 1007.4
20260507040051 11 346 1.6 3.2 0.00 0.00 0.00 94 1007.6
20260507035539 11 0 0.0 3.2 0.00 0.00 0.00 94 1007.7
20260507035041 11 346 0.0 3.2 0.00 0.00 0.00 94 1007.7
20260507034550 11 346 0.0 3.2 0.00 0.00 0.00 94 1007.6
20260507034039 11 346 0.0 3.2 0.00 0.00 0.00 94 1007.7
20260507033537 11 346 0.0 3.2 0.00 0.00 0.00 94 1007.7
20260507033050 11 346 0.0 4.8 0.00 0.00 0.00 94 1007.8
20260507032538 11 346 1.6 4.8 0.00 0.00 0.00 94 1007.8
20260507032038 11 264 1.6 4.8 0.00 0.00 0.00 94 1007.8
20260507031548 11 265 0.0 4.8 0.00 0.00 0.00 94 1007.9
20260507031043 11 265 1.6 4.8 0.00 0.00 0.00 94 1007.8
20260507030538 11 12 0.0 3.2 0.00 0.00 0.00 94 1007.7
20260507030052 11 12 0.0 3.2 0.00 0.00 0.00 94 1007.7
20260507025538 11 12 0.0 3.2 0.00 0.00 0.00 94 1007.7
20260507025039 11 12 0.0 3.2 0.00 0.00 0.00 94 1007.8
20260507024549 11 12 0.0 3.2 0.00 0.00 0.00 94 1007.7
20260507024040 11 12 0.0 3.2 0.00 0.00 0.00 94 1007.5
20260507023543 11 0 0.0 3.2 0.00 0.00 0.00 94 1007.6
20260507023049 11 12 0.0 3.2 0.00 0.00 0.00 94 1007.7
20260507022539 11 12 0.0 3.2 0.00 0.00 0.00 94 1007.8
20260507022038 11 12 0.0 3.2 0.00 0.00 0.00 94 1007.8
20260507021559 11 0 0.0 3.2 0.00 0.00 0.00 94 1007.8
20260507021039 11 0 0.0 3.2 0.00 0.00 0.00 94 1007.8
20260507020539 11 0 0.0 3.2 0.00 0.00 0.00 94 1007.9
20260507020048 11 0 0.0 3.2 0.00 0.00 0.00 94 1008.0
20260507015540 11 0 0.0 3.2 0.00 0.00 0.00 94 1008.1
20260507015039 11 12 0.0 3.2 0.00 0.00 0.00 94 1008.2
20260507014547 11 0 0.0 3.2 0.00 0.00 0.00 94 1008.2
20260507014039 11 0 0.0 3.2 0.00 0.00 0.00 94 1008.3
20260507013538 12 0 0.0 3.2 0.00 0.00 0.00 94 1008.3
20260507013047 11 0 0.0 3.2 0.00 0.00 0.00 94 1008.5
20260507012541 12 114 0.0 3.2 0.00 0.00 0.00 94 1008.5
20260507012038 12 0 1.6 3.2 0.00 0.00 0.00 94 1008.5
20260507011600 12 23 0.0 3.2 0.00 0.00 0.00 94 1008.8
20260507011039 12 23 1.6 3.2 0.00 0.00 0.00 94 1008.7
20260507010539 12 23 0.0 3.2 0.00 0.00 0.00 94 1008.7
20260507010048 12 75 1.6 6.4 0.00 0.00 0.00 94 1008.8
20260507005539 12 0 1.6 6.4 0.00 0.00 0.00 94 1008.7
20260507005041 12 1 0.0 4.8 0.00 0.00 0.00 94 1008.8
20260507004553 12 347 0.0 4.8 0.00 0.00 0.00 94 1008.7
20260507004040 12 14 0.0 3.2 0.00 0.00 0.00 94 1008.7
20260507003539 12 14 0.0 4.8 0.00 0.00 0.00 94 1008.7
20260507003053 12 13 1.6 6.4 0.00 0.00 0.00 94 1008.6
20260507002539 12 13 1.6 6.4 0.00 0.00 0.00 94 1008.6
20260507002038 12 325 0.0 4.8 0.00 0.00 0.00 94 1008.5
20260507001553 12 325 0.0 3.2 0.00 0.00 0.00 94 1008.5
20260507001038 12 324 0.0 3.2 0.00 0.00 0.00 94 1008.6
20260507000539 12 0 0.0 8.0 0.00 0.00 0.00 94 1008.6
20260507000054 12 0 0.0 8.0 0.00 0.00 0.00 93 1008.6
20260506235539 12 324 0.0 3.2 0.00 0.00 0.00 93 1008.5
20260506235038 12 11 0.0 3.2 0.00 0.00 0.00 93 1008.5
20260506234605 12 0 0.0 3.2 0.00 0.00 0.00 93 1008.5
20260506234039 12 10 0.0 3.2 0.00 0.00 0.00 93 1008.5
20260506233539 12 0 0.0 3.2 0.00 0.00 0.00 93 1008.4
20260506233052 12 10 0.0 3.2 0.00 0.00 0.00 94 1008.4
20260506232540 12 0 0.0 4.8 0.00 0.00 0.00 93 1008.2
20260506232038 12 0 0.0 4.8 0.00 0.00 0.00 93 1008.2
20260506231549 12 6 0.0 3.2 0.00 0.00 0.00 93 1008.5
20260506231040 12 6 0.0 3.2 0.00 0.00 0.00 93 1008.3
20260506230539 12 0 0.0 3.2 0.00 0.00 0.00 93 1008.3
20260506230056 12 0 0.0 3.2 0.00 0.00 0.00 93 1008.3
20260506225538 12 0 0.0 3.2 0.00 0.00 0.00 93 1008.3
20260506225038 12 70 0.0 4.8 0.00 0.00 0.00 93 1008.5
20260506224550 12 0 0.0 4.8 0.00 0.00 0.00 93 1008.5
20260506224039 12 0 0.0 4.8 0.00 0.00 0.00 92 1008.6
20260506223539 12 0 0.0 1.6 0.00 0.00 0.00 93 1008.6
20260506223056 12 0 0.0 1.6 0.00 0.00 0.00 93 1008.6
20260506222539 12 0 0.0 3.2 0.00 0.00 0.00 92 1008.9
20260506222043 12 0 0.0 3.2 0.00 0.00 0.00 92 1008.7
20260506221553 12 184 0.0 3.2 0.00 0.00 0.00 92 1009.0
20260506221113 12 0 0.0 3.2 0.00 0.00 0.00 92 1008.9
20260506220539 12 0 0.0 3.2 0.00 0.00 0.00 92 1009.0
20260506220053 12 184 0.0 4.8 0.00 0.00 0.00 92 1009.1
20260506215539 12 0 0.0 4.8 0.00 0.00 0.00 92 1009.3
20260506215038 12 184 0.0 4.8 0.00 0.00 0.00 91 1009.2
20260506214551 12 278 0.0 4.8 0.00 0.00 0.00 91 1009.2
20260506214040 12 0 0.0 3.2 0.00 0.00 0.00 91 1009.0
20260506213539 12 0 0.0 3.2 0.00 0.00 0.00 91 1009.1
20260506213052 13 0 0.0 3.2 0.00 0.00 0.00 91 1009.1
20260506212538 13 143 0.0 3.2 0.00 0.00 0.00 91 1009.2
20260506212039 13 0 0.0 3.2 0.00 0.00 0.00 90 1009.2
20260506211549 13 143 0.0 3.2 0.00 0.00 0.00 90 1009.3
20260506211038 13 0 0.0 3.2 0.00 0.00 0.00 91 1009.3
20260506210538 13 0 0.0 3.2 0.00 0.00 0.00 91 1009.3
20260506210048 13 104 0.0 3.2 0.00 0.00 0.00 91 1009.3
20260506205539 13 0 0.0 3.2 0.00 0.00 0.00 91 1009.3
20260506205040 13 267 0.0 3.2 0.00 0.00 0.00 90 1009.4
20260506204558 13 0 0.0 3.2 0.00 0.00 0.00 90 1009.5
20260506204043 13 0 0.0 3.2 0.00 0.00 0.00 90 1009.5
20260506203540 13 0 0.0 3.2 0.00 0.00 0.00 90 1009.5
20260506203053 13 0 0.0 4.8 0.00 0.00 0.00 90 1009.4
20260506202538 13 0 0.0 4.8 0.00 0.00 0.00 89 1009.4
20260506202040 13 0 0.0 4.8 0.00 0.00 0.00 89 1009.5
20260506201547 13 0 0.0 4.8 0.00 0.00 0.00 90 1009.5
20260506201040 14 0 0.0 4.8 0.00 0.00 0.00 90 1009.6